Weather History for EBCV - November, 2012

Change the Weather History Date:

Friday, November 2, 2012

  Actual Average Record
Temperature  
Mean Temperature 44 °F -  
Max Temperature 48 °F 46 °F 62 °F (2014)
Min Temperature 40 °F 40 °F 28 °F (1997)
Degree Days  
Heating Degree Days 21    
Moisture  
Dew Point 40 °F    
Average Humidity 87    
Maximum Humidity 100    
Minimum Humidity 69    
Precipitation  
Precipitation 0.31 in - - ()
Sea Level Pressure  
Sea Level Pressure 29.40 in    
Wind  
Wind Speed 14 mph ()    
Max Wind Speed 22 mph    
Max Gust Speed -    
Visibility 6.7 miles    
Events Rain    
Averages and records for this station are not official NWS values.
T = Trace of Precipitation, MM = Missing Value Source: Averaged Metar Reports

Daily Weather History Graph

Daily Weather History Graph

Search for Another Location

Airport or City:

Trip Planner

Search our weather history database for the weather conditions in past years. The results will help you decide how hot, cold, wet, or windy it might be!

Date:

Astronomy

Nov. 02, 2012 Rise Set
Actual Time 7:37 AM CET 5:17 PM CET
Civil Twilight 7:03 AM CET 5:52 PM CET
Nautical Twilight 6:24 AM CET 6:31 PM CET
Astronomical Twilight 5:46 AM CET 7:08 PM CET
Moon 7:37 PM CET (11/2) 11:00 AM CET (11/2)
Length of Visible Light 10h 48m
Length of Day
9h 39m
Waning Gibbous, 89% of the Moon is Illuminated
Nov 2
Waning Gibbous
Nov 7
Last Quarter
Nov 13
New
Nov 20
First Quarter
Nov 28
Full

Hourly Weather History & Observations

Time (CET) Temp. Windchill Dew Point Humidity Pressure Visibility Wind Dir Wind Speed Gust Speed Precip Events Conditions
12:21 AM 42.8 °F 35.1 °F 39.2 °F 87% 29.27 in 6.2 mi SW 16.1 mph - N/A   Overcast
12:25 AM 42.8 °F 34.5 °F 39.2 °F 87% 29.27 in 6.2 mi SW 18.4 mph - N/A Rain Light Rain Showers
12:56 AM 42.8 °F 35.4 °F 39.2 °F 87% 29.27 in 6.2 mi SW 15.0 mph - N/A   Mostly Cloudy
1:00 AM 42 °F - 38 °F 83% 29.30 in 19 mi SW 15.7 mph - - Rain Drizzle
1:25 AM 42.8 °F 35.8 °F 39.2 °F 87% 29.30 in 6.2 mi SW 13.8 mph - N/A Rain Light Rain Showers
2:25 AM 41.0 °F 32.5 °F 39.2 °F 93% 29.33 in 6.2 mi SW 17.3 mph - N/A Rain Light Rain Showers
3:21 AM 41.0 °F 33.1 °F 37.4 °F 87% 29.36 in 6.2 mi SSW 15.0 mph - N/A Rain Light Rain Showers
3:25 AM 41.0 °F 32.8 °F 37.4 °F 87% 29.36 in 6.2 mi SSW 16.1 mph - N/A Rain Light Rain Showers
3:33 AM 41.0 °F 32.8 °F 37.4 °F 87% 29.36 in 6.2 mi SSW 16.1 mph - N/A Rain Light Rain Showers
4:00 AM 41 °F - 37 °F 82% 29.37 in 22 mi SSW 17.9 mph - - Rain Rain
4:25 AM 41.0 °F 32.2 °F 37.4 °F 87% 29.36 in 6.2 mi SSW 18.4 mph - N/A   Mostly Cloudy
5:25 AM 41.0 °F 32.5 °F 37.4 °F 87% 29.36 in 6.2 mi SSW 17.3 mph - N/A   Mostly Cloudy
5:46 AM 41.0 °F 32.2 °F 37.4 °F 87% 29.39 in 6.2 mi SSW 18.4 mph - N/A   Mostly Cloudy
5:52 AM 41.0 °F 32.2 °F 37.4 °F 87% 29.39 in 6.2 mi SSW 18.4 mph - N/A   Mostly Cloudy
6:25 AM 41.0 °F 32.5 °F 37.4 °F 87% 29.39 in 6.2 mi SSW 17.3 mph - N/A   Mostly Cloudy
7:00 AM 42 °F - 37 °F 76% 29.41 in 19 mi SSW 17.9 mph - -   Clear
7:01 AM 42.8 °F 34.5 °F 37.4 °F 81% 29.39 in 6.2 mi SSW 18.4 mph - N/A   Mostly Cloudy
7:11 AM 41.0 °F 32.2 °F 37.4 °F 87% 29.42 in 6.2 mi SSW 18.4 mph - N/A   Mostly Cloudy
7:25 AM 41.0 °F 32.5 °F 37.4 °F 87% 29.42 in 6.2 mi SW 17.3 mph - N/A   Mostly Cloudy
8:01 AM 42.8 °F 35.8 °F 37.4 °F 81% 29.42 in 6.2 mi SSW 13.8 mph - N/A   Drizzle
8:25 AM 42.8 °F 36.2 °F 37.4 °F 81% 29.44 in 6.2 mi SW 12.7 mph - N/A   Mostly Cloudy
8:28 AM 42.8 °F 35.4 °F 37.4 °F 81% 29.44 in 6.2 mi SW 15.0 mph - N/A   Mostly Cloudy
8:41 AM 42.8 °F 35.4 °F 37.4 °F 81% 29.44 in 6.2 mi SSW 15.0 mph - N/A   Overcast
8:47 AM 42.8 °F 35.4 °F 37.4 °F 81% 29.44 in 6.2 mi SSW 15.0 mph - N/A   Mostly Cloudy
9:25 AM 42.8 °F 35.8 °F 37.4 °F 81% 29.44 in 6.2 mi SSW 13.8 mph - N/A   Scattered Clouds
10:00 AM 44 °F - 38 °F 71% 29.45 in 12 mi SSW 20.1 mph - -   Clear
10:25 AM 44.6 °F 36.4 °F 37.4 °F 76% 29.42 in 6.2 mi SSW 20.7 mph - N/A   Clear
11:25 AM 46.4 °F 38.7 °F 39.2 °F 76% 29.42 in 6.2 mi SSW 20.7 mph - N/A   Partly Cloudy
12:25 PM 48.2 °F - 39.2 °F 71% 29.42 in 6.2 mi SSW 20.7 mph - N/A   Partly Cloudy
1:00 PM 47 °F - 40 °F 69% 29.42 in 12 mi SSW 22.4 mph - - Rain Light Drizzle
1:25 PM 44.6 °F 37.4 °F 42.8 °F 93% 29.42 in 6.2 mi South 16.1 mph - N/A Rain Light Rain Showers
2:25 PM 46.4 °F 39.8 °F 42.8 °F 87% 29.39 in 5.6 mi SSW 16.1 mph - N/A Rain Rain Showers
2:28 PM 44.6 °F 37.4 °F 42.8 °F 93% 29.39 in 4.3 mi SSW 16.1 mph - N/A Rain Rain Showers
2:46 PM 46.4 °F 39.2 °F 42.8 °F 87% 29.39 in 5.6 mi SSW 18.4 mph - N/A Rain Rain
3:25 PM 44.6 °F 37.8 °F 42.8 °F 93% 29.39 in 6.2 mi SSW 15.0 mph - N/A   Light Drizzle
3:42 PM 46.4 °F 40.4 °F 42.8 °F 87% 29.39 in 4.3 mi SSW 13.8 mph - N/A Rain Light Rain Showers
3:50 PM 44.6 °F 38.4 °F 42.8 °F 93% 29.39 in 5.0 mi SSW 12.7 mph - N/A Rain Light Rain Showers
4:00 PM 46 °F - 43 °F 87% 29.39 in 5 mi SSW 11.2 mph - - Rain Light Rain Showers
4:01 PM 44.6 °F 39.2 °F 42.8 °F 93% 29.39 in 5.0 mi SSW 10.4 mph - N/A Rain Light Rain Showers
4:21 PM 44.6 °F 41.4 °F 44.6 °F 100% 29.36 in 5.6 mi WSW 5.8 mph - N/A Rain Light Rain Showers
4:25 PM 44.6 °F 41.4 °F 42.8 °F 93% 29.36 in 4.3 mi SW 5.8 mph - N/A Rain Rain Showers
4:33 PM 44.6 °F 40.7 °F 44.6 °F 100% 29.39 in 1.7 mi West 6.9 mph - N/A Rain Rain
4:47 PM 44.6 °F 40.2 °F 44.6 °F 100% 29.39 in 2.5 mi West 8.1 mph - N/A Rain Light Rain
4:53 PM 44.6 °F 39.2 °F 42.8 °F 93% 29.39 in 3.7 mi WSW 10.4 mph - N/A Rain Light Rain
5:05 PM 44.6 °F 38.1 °F 41.0 °F 87% 29.39 in 5.6 mi SW 13.8 mph - N/A Rain Heavy Rain
5:25 PM 46.4 °F 41.1 °F 42.8 °F 87% 29.39 in 6.2 mi WSW 11.5 mph - N/A   Mostly Cloudy
5:35 PM 42.8 °F 35.8 °F 39.2 °F 87% 29.39 in 6.2 mi West 13.8 mph - N/A Rain Light Rain Showers
5:41 PM 42.8 °F 35.8 °F 39.2 °F 87% 29.39 in 6.2 mi WNW 13.8 mph - N/A Rain Light Rain Showers
6:06 PM 41.0 °F 36.4 °F 39.2 °F 93% 29.42 in 6.2 mi West 6.9 mph - N/A Rain Rain Showers
6:25 PM 41.0 °F 38.0 °F 39.2 °F 93% 29.42 in 6.2 mi West 4.6 mph - N/A Rain Light Rain Showers
7:00 PM 40 °F - 39 °F 93% 29.45 in 11 mi SW 6.7 mph - - Rain Rain
7:25 PM 41.0 °F 33.5 °F 39.2 °F 93% 29.44 in 6.2 mi SW 13.8 mph - N/A   Partly Cloudy
8:25 PM 41.0 °F 34.3 °F 39.2 °F 93% 29.44 in 6.2 mi SW 11.5 mph - N/A   Partly Cloudy
9:25 PM 42.8 °F 35.8 °F 39.2 °F 87% 29.47 in 6.2 mi SW 13.8 mph - N/A   Clear
10:00 PM 43 °F - 40 °F 85% 29.52 in 16 mi SW 13.4 mph - -   Clear
10:25 PM 42.8 °F 34.8 °F 39.2 °F 87% 29.50 in 6.2 mi SW 17.3 mph - N/A   Mostly Cloudy
11:25 PM 42.8 °F 36.2 °F 41.0 °F 93% 29.53 in 6.2 mi SSW 12.7 mph - N/A   Mostly Cloudy